Torna al catalogo

STARLINK-4647

AttivoComunicazioniVLEO
NORAD 53608·PAYLOAD·🇺🇸 United States

Lanciato Aug 28, 2022 da Cape Canaveral Space Force Station

Loading…

Prossimi Passaggi (prossime 24 ore)

TLE

AggiornatoSource: CelesTrak SupGP

Epoca: Sep 15, 2026, 02:36 UTC

1 53608C 22104W   26258.10881944 -.00002706  00000+0 -79949-4 0  2585
2 53608  53.1578  93.0400 0001121  85.1780 330.3105 15.34395496    18

Traccia STARLINK-4647 in tempo reale con AllMySat

Download on the App Store